Cape Town, South Africa

5:43 PM SAST on June 28, 2017 (GMT +0200)
Cape Town

Weather History for FACT - October, 2012

Change the Weather History Date:

Saturday, October 6, 2012

  Actual Average Record
Temperature  
Mean Temperature 54 °F -  
Max Temperature 65 °F 70 °F 91 °F (2014)
Min Temperature 44 °F 52 °F 41 °F (2011)
Degree Days  
Heating Degree Days 10    
Growing Degree Days 4 (Base 50)    
Moisture  
Dew Point 41 °F    
Average Humidity 58    
Maximum Humidity 81    
Minimum Humidity 33    
Precipitation  
Precipitation 0.01 in 0.00 in - ()
Sea Level Pressure  
Sea Level Pressure 30.09 in    
Wind  
Wind Speed 5 mph ()    
Max Wind Speed 15 mph    
Max Gust Speed -    
Visibility 7.3 miles    
Events      
Averages and records for this station are not official NWS values.
T = Trace of Precipitation, MM = Missing Value Source: Averaged Metar Reports

Daily Weather History Graph

Daily Weather History Graph

Search for Another Location

Airport or City:

Trip Planner

Search our weather history database for the weather conditions in past years. The results will help you decide how hot, cold, wet, or windy it might be!

Date:

Astronomy

Oct. 06, 2012 Rise Set
Actual Time 6:15 AM SAST 6:52 PM SAST
Civil Twilight 5:50 AM SAST 7:17 PM SAST
Nautical Twilight 5:20 AM SAST 7:47 PM SAST
Astronomical Twilight 4:50 AM SAST 8:17 PM SAST
Moon No Moon Rise 10:08 AM SAST (10/6)
Length of Visible Light 13h 27m
Length of Day
12h 36m
Waning Gibbous, 68% of the Moon is Illuminated
Oct 6
Waning Gibbous
Oct 8
Last Quarter
Oct 15
New
Oct 22
First Quarter
Oct 29
Full

Hourly Weather History & Observations

Time (SAST) Temp. Windchill Dew Point Humidity Pressure Visibility Wind Dir Wind Speed Gust Speed Precip Events Conditions
12:00 AM 48.2 °F - 39.2 °F 71% 30.12 in - Calm Calm - N/A   Clear
1:00 AM 46.4 °F - 37.4 °F 71% 30.12 in - NW 1.2 mph - N/A   Clear
2:00 AM 45 °F - 37 °F 66% 30.13 in 25 mi North 5.8 mph - -  
2:00 AM 44.6 °F 42.2 °F 37.4 °F 76% 30.09 in - North 4.6 mph - N/A   Clear
3:00 AM 44.6 °F 42.2 °F 39.2 °F 81% 30.09 in 6.2 mi North 4.6 mph - N/A   Scattered Clouds
4:00 AM 44.6 °F 41.4 °F 37.4 °F 76% 30.09 in 6.2 mi NNE 5.8 mph - N/A   Partly Cloudy
5:00 AM 47 °F - 40 °F 69% 30.09 in 25 mi NNE 5.8 mph - -   Mostly Cloudy
5:00 AM 48.2 °F - 41.0 °F 76% 30.06 in 6.2 mi NNE 5.8 mph - N/A   Mostly Cloudy
6:00 AM 50.0 °F - 41.0 °F 71% 30.09 in 6.2 mi North 2.3 mph - N/A   Mostly Cloudy
7:00 AM 50.0 °F - 41.0 °F 71% 30.09 in 6.2 mi Variable 2.3 mph - N/A   Mostly Cloudy
8:00 AM 53 °F - 43 °F 60% 30.11 in 25 mi 1.2 mph - -   Partly Cloudy
8:00 AM 53.6 °F - 42.8 °F 67% 30.09 in 6.2 mi Variable 1.2 mph - N/A   Scattered Clouds
9:00 AM 59.0 °F - 42.8 °F 55% 30.09 in 6.2 mi NW 4.6 mph - N/A   Partly Cloudy
10:00 AM 59.0 °F - 42.8 °F 55% 30.09 in 6.2 mi West 3.5 mph - N/A   Scattered Clouds
11:00 AM 59.0 °F - 41.0 °F 51% 30.09 in 6.2 mi Variable 2.3 mph - N/A   Mostly Cloudy
12:00 PM 62.6 °F - 42.8 °F 48% 30.09 in 6.2 mi Variable 4.6 mph - N/A   Mostly Cloudy
1:00 PM 64.4 °F - 42.8 °F 45% 30.09 in 6.2 mi NW 8.1 mph - N/A   Scattered Clouds
2:00 PM 64 °F - 42 °F 33% 30.08 in 16 mi WNW 11.5 mph - -   Mostly Cloudy
2:00 PM 64.4 °F - 41.0 °F 42% 30.06 in 6.2 mi West 11.5 mph - N/A   Mostly Cloudy
3:00 PM 64.4 °F - 41.0 °F 42% 30.06 in 6.2 mi West 15.0 mph - N/A   Scattered Clouds
4:00 PM 62.6 °F - 39.2 °F 42% 30.06 in 6.2 mi WSW 12.7 mph - N/A   Partly Cloudy
5:00 PM 62.6 °F - 37.4 °F 39% 30.06 in 6.2 mi West 9.2 mph - N/A   Partly Cloudy
6:00 PM 60.8 °F - 39.2 °F 45% 30.09 in 6.2 mi NW 11.5 mph - N/A   Partly Cloudy
7:00 PM 57.2 °F - 39.2 °F 51% 30.09 in 6.2 mi WNW 11.5 mph - N/A   Partly Cloudy
8:00 PM 55 °F - 40 °F 46% 30.11 in 16 mi NW 9.2 mph - -   Scattered Clouds
8:00 PM 55.4 °F - 41.0 °F 58% 30.09 in 6.2 mi NW 8.1 mph - N/A   Partly Cloudy
9:00 PM 57.2 °F - 41.0 °F 55% 30.09 in 6.2 mi North 6.9 mph - N/A   Mostly Cloudy
10:00 PM 57.2 °F - 44.6 °F 63% 30.12 in 6.2 mi WNW 8.1 mph - N/A   Mostly Cloudy
11:00 PM 55 °F - 45 °F 60% 30.13 in 12 mi NNW 6.9 mph - -   Mostly Cloudy
11:00 PM 55.4 °F - 44.6 °F 67% 30.12 in 6.2 mi NNW 6.9 mph - N/A   Mostly Cloudy